Location: �quirre
(50.4736°N, 2.2351°E)
Time: 06:01:55
(UTC+00:00)

IRS-1C - Pass Details

Date: 07 August 2020
Orbit: 816 x 817 km, 98.8° (Epoch: 23 September)

Event Time Altitude Azimuth Distance (km) Brightness Sun altitude
Rises 02:26:31 0° 16° (NNE) 3,359 8.7 -15.6°
Reaches altitude 10° 02:28:53 10° 20° (NNE) 2,422 7.8 -15.3°
Maximum altitude 02:34:14 68° 103° (ESE) 880 4.4 -14.8°
Enters shadow 02:38:42 15° 185° (S) 2,082 5.8 -14.4°
